Ireland West Airport Knock, Ireland

4:53 AM IST on August 27, 2016 (GMT +0100)
Connaught

Weather History for EIKN - November, 2011

Change the Weather History Date:

Wednesday, November 30, 2011

  Actual Average Record
Temperature  
Mean Temperature 41 °F -  
Max Temperature 46 °F - - ()
Min Temperature 36 °F - - ()
Degree Days  
Heating Degree Days 24    
Moisture  
Dew Point 43 °F    
Average Humidity 95    
Maximum Humidity 100    
Minimum Humidity 77    
Precipitation  
Precipitation 0.35 in - - ()
Sea Level Pressure  
Sea Level Pressure 29.57 in    
Wind  
Wind Speed 17 mph ()    
Max Wind Speed 31 mph    
Max Gust Speed 45 mph    
Visibility 5.6 miles    
Events Rain    
T = Trace of Precipitation, MM = Missing Value Source: Averaged Metar Reports

Daily Weather History Graph

Daily Weather History Graph

Search for Another Location

Airport or City:

Trip Planner

Search our weather history database for the weather conditions in past years. The results will help you decide how hot, cold, wet, or windy it might be!

Date:

Astronomy

Nov. 30, 2011 Rise Set
Actual Time 8:28 AM GMT 4:19 PM GMT
Civil Twilight 7:46 AM GMT 5:00 PM GMT
Nautical Twilight 7:01 AM GMT 5:45 PM GMT
Astronomical Twilight 6:18 AM GMT 6:28 PM GMT
Moon 12:14 PM GMT (11/30) 10:31 PM GMT (11/30)
Length of Visible Light 9h 14m
Length of Day
7h 50m
Waxing Crescent, 31% of the Moon is Illuminated
Nov 30
Waxing Crescent
Dec 2
First Quarter
Dec 10
Full
Dec 18
Last Quarter
Dec 24
New

Hourly Weather History & Observations

Time (GMT) Temp. Windchill Dew Point Humidity Pressure Visibility Wind Dir Wind Speed Gust Speed Precip Events Conditions
12:00 AM 38 °F - 33 °F 77% 29.76 in - SSW 11.2 mph - -  
6:00 AM 40 °F - 40 °F 99% 29.76 in 7 mi South 11.2 mph - - Rain Light Rain Showers
8:00 AM 42.8 °F 35.8 °F 42.8 °F 100% 29.68 in 5.6 mi South 13.8 mph - N/A Rain Light Rain
8:30 AM 42.8 °F 35.4 °F 42.8 °F 100% 29.71 in 2.5 mi SSW 15.0 mph - N/A Rain Light Rain
9:00 AM 42.8 °F 35.8 °F 42.8 °F 100% 29.68 in 6.2 mi South 13.8 mph - N/A Rain Light Rain
9:30 AM 46.4 °F 39.0 °F 44.6 °F 93% 29.68 in 6.2 mi SSW 19.6 mph 32.2 mph N/A   Mostly Cloudy
10:00 AM 44.6 °F 36.9 °F 44.6 °F 100% 29.68 in 3.7 mi South 18.4 mph 29.9 mph N/A Rain Light Rain
10:30 AM 44.6 °F 37.4 °F 44.6 °F 100% 29.68 in 6.2 mi South 16.1 mph 27.6 mph N/A   Mostly Cloudy
11:00 AM 44.6 °F 37.2 °F 44.6 °F 100% 29.65 in 6.2 mi South 17.3 mph - N/A Rain Light Rain
11:30 AM 44.6 °F 36.9 °F 44.6 °F 100% 29.65 in 6.2 mi South 18.4 mph - N/A   Mostly Cloudy
12:00 PM 46 °F - 44 °F 90% 29.64 in 11 mi South 22.4 mph - - Rain Light Rain
12:00 PM 46.4 °F 38.3 °F 44.6 °F 93% 29.62 in 6.2 mi South 23.0 mph - N/A   Mostly Cloudy
12:30 PM 46.4 °F 37.0 °F 44.6 °F 93% 29.59 in 4.3 mi South 31.1 mph 44.9 mph N/A Rain Light Rain
1:00 PM 46.4 °F 38.3 °F 42.8 °F 87% 29.59 in 6.2 mi South 23.0 mph 36.8 mph N/A   Mostly Cloudy
1:30 PM 46.4 °F 37.9 °F 44.6 °F 93% 29.56 in 5.6 mi South 25.3 mph 41.4 mph N/A Rain Light Rain
2:00 PM 46.4 °F 37.7 °F 44.6 °F 93% 29.53 in 6.2 mi South 26.5 mph 40.3 mph N/A Rain Light Rain
2:30 PM 46.4 °F 38.3 °F 44.6 °F 93% 29.50 in 6.2 mi South 23.0 mph 34.5 mph N/A Rain Light Rain
3:00 PM 44.6 °F 35.5 °F 44.6 °F 100% 29.47 in 4.3 mi South 25.3 mph 39.1 mph N/A Rain Rain
3:30 PM 44.6 °F 35.5 °F 42.8 °F 93% 29.47 in 5.6 mi South 25.3 mph 38.0 mph N/A Rain Rain
4:00 PM 44.6 °F 35.5 °F 42.8 °F 93% 29.44 in 6.2 mi South 25.3 mph 39.1 mph N/A Rain Rain
5:00 PM 44.6 °F 35.1 °F 42.8 °F 93% 29.42 in 4.3 mi South 27.6 mph 42.6 mph N/A Rain Rain
6:00 PM 44 °F - 44 °F 97% 29.38 in 4 mi South 24.6 mph - - Rain Rain
6:00 PM 44.6 °F 35.7 °F 42.8 °F 93% 29.36 in 3.7 mi South 24.2 mph 38.0 mph N/A Rain Rain
7:00 PM 44.6 °F 35.5 °F 42.8 °F 93% 29.27 in 5.0 mi South 25.3 mph - N/A Rain Light Rain